{"data":{"norad_id":66478,"epoch":"2026-09-20T08:18:23.344128Z","epoch_age_seconds":103136,"freshness":"FRESH","line1":"1 66478U 25262Y   26263.34610352  .00007450  00000+0  27995-3 0  9991","line2":"2 66478  42.9995 277.0974 0001486 281.7906  78.2779 15.27583299 48675","mean_motion":15.27583299,"eccentricity":0.0001486,"inclination_deg":42.9995,"raan_deg":277.0974,"arg_perigee_deg":281.7906,"mean_anomaly_deg":78.2779,"bstar":0.00027995,"rev_number":4867,"period_min":94.266545133262,"perigee_km":482.01964687868,"apogee_km":484.05878845057,"semimajor_km":6861.1762176646,"source":"CELESTRAK","updated_at":"2026-09-21T09:00:35.916980Z"}}